Location: McLaughlin
(0.0000°N, 0.0000°E)
Time: 10:45:27
(UTC+00:00)

Hubble Space Telescope - Pass Details

Date: 22 June 2019
Orbit: 536 x 540 km, 28.5° (Epoch: 18 July)

Event Time Altitude Azimuth Distance (km) Brightness Sun altitude
Rises 20:03:10 0° 276° (W) 2,675 5.4 -27.6°
Reaches altitude 10° 20:06:34 10° 305° (NW) 1,782 4.4 -28.3°
Maximum altitude 20:08:27 13° 333° (NNW) 1,607 3.8 -28.7°
Drops below altitude 10° 20:10:21 10° 0° (N) 1,779 3.7 -29.2°
Enters shadow 20:10:49 - 6° (N) 1,868 3.7 -29.3°
